Flag for Switzerland Weather past 2 weeks in Stäfa, Zurich, Switzerland

Now
64 °F

Mild.


Feels Like: 64 °F
Forecast: 55 / 72 °F
Wind: 8 mph from Southwest

Location: Zurich Town / Ville.

Current Time: Jul 28, 2015 at 5:44:26 AM

Latest Report: Jul 28, 2015 at 4:00 AM


Visibility: N/A

Pressure: 29.84 "Hg

Humidity: 58%

Dew point: 49 °F

Location of StäfaLocation

Historic Weather in Stäfa — Graph

°F

Stäfa temperature yesterday

Maximum temperature yesterday: 75 °F (at 4:00 PM)
Minimum temperature yesterday: 56 °F (at 1:00 AM)
Average temperature yesterday: 66 °F

Past Weeks' High & Low Weather Summary

 TemperatureHumidityPressure
High92 °F (Jul 21, 5:00 PM)98% (Jul 27, 2:00 AM)30.17 "Hg (Jul 27, 2:00 AM)
Low55 °F (Jul 26, 6:00 AM)24% (Jul 16, 4:00 PM)29.66 "Hg (Jul 24, 5:00 PM)
Average72 °F62%29.96 "Hg
* Reported Jul 13 4:00 AM — Jul 28 4:00 AM, Stäfa, Weather by CustomWeather, © 2015

Note: Actual official high and low records may vary slightly from our data, if they occured in-between our weather recording intervals... More about our weather records

Advertising

Stäfa weather history for previous 24 hours

 ConditionsComfort  
Time TempWeatherWind HumidityBarometerVisibility
4:00 AM
Tue, Jul 28
64 °FMild.8 mph58%29.84 "HgN/A
3:00 AM66 °FMild.8 mph54%29.83 "HgN/A
2:00 AM66 °FMild.10 mph54%29.84 "HgN/A
1:00 AM65 °FMild.9 mph56%29.84 "HgN/A
12:00 AM66 °FMild.7 mph54%29.85 "HgN/A
10:00 PM
Mon, Jul 27
66 °FMild.6 mph56%29.84 "HgN/A
9:00 PM68 °FMild.12 mph51%29.83 "HgN/A
8:00 PM70 °FScattered clouds.8 mph47%29.80 "HgN/A
7:00 PM72 °FMild.12 mph43%29.78 "HgN/A
6:00 PM75 °FMild.16 mph34%29.77 "HgN/A
5:00 PM74 °FMild.15 mph41%29.76 "HgN/A
4:00 PM75 °FMild.20 mph37%29.75 "HgN/A
3:00 PM74 °FMild.17 mph46%29.76 "HgN/A
2:00 PM72 °FPartly sunny.18 mph44%29.76 "HgN/A
1:00 PM73 °FMild.16 mph46%29.75 "HgN/A
12:00 PM70 °FMild.20 mph48%29.77 "HgN/A
11:00 AM68 °FMild.15 mph54%29.78 "HgN/A
10:00 AM65 °FMild.15 mph67%29.79 "HgN/A
9:00 AM62 °FMild.12 mph78%29.80 "HgN/A
8:00 AM60 °FCool.10 mph85%29.80 "HgN/A
7:00 AM59 °FCool.13 mph87%29.79 "HgN/A
Weather by CustomWeather, © 2015

See weather overviewHow to use our weather pages